Regional Weather Roundup
Issued by NWS Upton, NY

Current Version | Previous Version | Graphics & Text | Print | Product List | Glossary Off
Versions: 1 2 3 4 5 6 7 8 9 10 11 12 13 14 15 16 17 18 19 20 21 22 23 24 25 26 27 28 29 30 31 32 33 34 35 36 37 38 39 40 41 42 43 44 45 46 47 48 49 50

000
ASUS41 KOKX 250905
RWROKX

REGIONAL WEATHER ROUNDUP
NATIONAL WEATHER SERVICE NEW YORK NY
500 AM EDT FRI JUL 25 2014

NOTE: "FAIR" INDICATES FEW OR NO CLOUDS BELOW 12,000 FEET WITH NO
SIGNIFICANT WEATHER AND/OR OBSTRUCTIONS TO VISIBILITY.

NYZ071-072-176-178-NJZ106-104-251000-
NEW YORK CITY METRO AREA


CITY           SKY/WX    TMP DP  RH WIND       PRES   REMARKS
CENTRAL PARK   CLEAR     67  53  61 VRB6      29.99R
LAGUARDIA APRT PTCLDY    68  54  60 N7        29.95R
KENNEDY INTL   MOCLDY    68  54  60 N12       29.96R
NEWARK/LIBERTY MOCLDY    67  53  61 N9        29.96R
BRNX BOT. GARD   N/A     66  52  59 N6        29.97R
TETERBORO      PTCLDY    67  53  61 NW5       29.95S
$$

NYZ177-179-078>081-251000-
LONG ISLAND NEW YORK

CITY           SKY/WX    TMP DP  RH WIND       PRES   REMARKS
FARMINGDALE    PTCLDY    65  55  70 N7        29.95R
ISLIP          CLEAR     67  56  67 N7        29.93R
SHIRLEY        CLEAR     65  58  78 N7        29.95R
WESTHAMPTON    PTCLDY    63  59  87 N6        29.95R
MONTAUK POINT    N/A     68  65  90 N5        29.94R
$$

NYZ052-065-067-251000-
HUDSON VALLEY

CITY           SKY/WX    TMP DP  RH WIND       PRES   REMARKS
WHITE PLAINS   MOCLDY    63  52  67 N10       29.96R
NEWBURGH       CLEAR     55  54  94 CALM      30.00R
MONTGOMERY     CLEAR     53  51  93 CALM      29.99S
POUGHKEEPSIE   CLEAR     56  54  93 CALM      29.98S
ALBANY         CLEAR     57  50  77 CALM      29.99S
$$

NJZ001-105-106-008-010-013-015-019>022-104-251000-
NEW JERSEY

CITY           SKY/WX    TMP DP  RH WIND       PRES   REMARKS
NEWARK/LIBERTY MOCLDY    67  53  61 N9        29.96R
TETERBORO      PTCLDY    67  53  61 NW5       29.95S
CALDWELL       PTCLDY    60  52  74 CALM      29.97S
MORRISTOWN     PTCLDY    64  54  68 NW3       29.97F
SOMERVILLE     PTCLDY    58  54  86 NW5       29.95S
LINDEN         FAIR      66  55  66 CALM      29.97S
SUSSEX         CLEAR     54  50  86 CALM      29.99S
ANDOVER          N/A     54  52  93 CALM      30.00S
TRENTON        PTCLDY    61  52  72 N5        29.96S
MILLVILLE      CLEAR     62  54  74 NW5       29.96S
ATLANTIC CITY  CLEAR     61  55  81 NW5       29.95S
WRIGHTSTOWN    CLEAR     61  54  77 NW6       29.94S
TOMS RIVER     CLEAR     61  54  77 N5        29.95S
BELMAR         CLEAR     63  52  67 NW6       29.95S
$$

PAZ047>061-062-071-251000-
EASTERN PENNSYLVANIA

CITY           SKY/WX    TMP DP  RH WIND       PRES   REMARKS
PHILADELPHIA   CLEAR     64  51  62 N7        29.97S
ALLENTOWN      CLEAR     56  49  77 W5        29.99S
SCRANTON       CLEAR     51  47  86 CALM      30.02F
$$

CTZ002-004>006-009-010-012-RIZ004-006-007-MAZ004-011-015-251000-
SOUTHERN NEW ENGLAND
 IN CT

CITY           SKY/WX    TMP DP  RH WIND       PRES   REMARKS
BRADLEY INTL   PTCLDY    59  54  83 N7        29.96R
HARTFORD       CLEAR     61  55  81 CALM      29.96R
DANBURY        CLEAR     56  52  86 CALM      29.99R
WTRBRY/OXFORD  CLEAR     57  48  72 N7        29.99S
BRIDGEPORT     MOCLDY    66  55  67 N7        29.95R
MERIDEN        CLEAR     61  56  83 CALM      29.97R
NEW HAVEN      PTCLDY    64  55  72 N6        29.96R
CHESTER        FAIR      63  55  77 N6        29.97R
GROTON         MOCLDY    63  61  93 N9        29.93R
WILLIMANTIC    PTCLDY    59  55  87 N3        29.97R

 IN RI

CITY           SKY/WX    TMP DP  RH WIND       PRES   REMARKS
PROVIDENCE     MOCLDY    64  52  64 N7        29.94R
BLOCK ISLAND   CLOUDY    66  63  88 N7        29.93S
WESTERLY       MOCLDY    67  60  78 N6        29.94R

 IN MA

CITY           SKY/WX    TMP DP  RH WIND       PRES   REMARKS
BOSTON         MOCLDY    63  52  67 NW12      29.93R
WORCESTER      PTCLDY    57  49  74 NW7       29.97R
WESTFIELD      CLEAR     55  53  93 CALM      29.97R
PROVINCETOWN   MOCLDY    63  59  88 NW8       29.92R
NANTUCKET      PTCLDY    65  62  90 N8        29.90R
$$

ANZ330-335-338-340-345-350-353-355-251000-
COASTAL MARINE OBSERVATIONS


STATION/POSITION TIME  SKY/WX   TEMP    WIND        PRES    VSBY  WAVE
                                AIR SEA DIR/SP/G                  HT/PER
                 (UTC)          (F)     (DEG/KT/KT) (MB)    (MI)  (FT/S)
NY HARB ENTRANCE NOT AVBL
4S FIRE IS       NOT AVBL
23SW MTP         0900            69 71              1012.7          2/ 9
HUDSON CANYON    0900            72 74  340/ 10/ 12 1012.3          3/ 8
EXECUTION ROCKS  0900            68 71   10/ 10/ 14   N/A
WESTERN LI SOUND 0900            67      10/ 14/ 16   N/A           1/ 2
CENTRAL LI SOUND 0800            68 72  350/ 17/ 19   N/A           1/ 2
EASTERN LI SOUND 0800            66 67   10/ 10/ 12   N/A
ROBBINS REEF     0900            68     360/ 10/ 11   N/A
$$


>>>>>>>>>>>>>>>>>>>>>>>>>>>> KEY <<<<<<<<<<<<<<<<<<<<<<<<<<<
>                                                          <
>     SKY/WX - SKY CONDITION/PRESENT WEATHER               <
>     TMP    - TEMPERATURE IN FAHRENHEIT                   <
>     DP     - DEWPOINT IN FAHRENHEIT                      <
>     RH     - RELATIVE HUMIDITY IN PERCENT                <
>     WIND   - DIRECTION AND SPEED IN MPH                  <
>     PRES   - MEAN SEA LEVEL PRESSURE IN INCHES OF HG     <
>     WCI    - WIND CHILL INDEX                            <
>     VSB    - VISIBILITY IN MILES                         <
>     HX     - HEAT INDEX                                  <
>     TC     - TEMPERATURE IN CELSIUS                      <
>     VRB    - VARIABLE WIND DIRECTION                     <
>                                                          <
>>>>>>>>>>>>>>>>>>>>>>>>>>>> KEY <<<<<<<<<<<<<<<<<<<<<<<<<<<




USA.gov is the U.S. government's official web portal to all federal, state and local government web resources and services.